TimePDT,TemperatureF,Dew PointF,Humidity,Sea Level PressureIn,VisibilityMPH,Wind Direction,Wind SpeedMPH,Gust SpeedMPH,PrecipitationIn,Events,Conditions,WindDirDegrees,DateUTC
12:55 AM,46.0,31.8,58,30.02,10.0,Calm,Calm,-,N/A,,Clear,0,2012-10-10 07:55:00
1:55 AM,44.8,31.5,60,30.01,10.0,SE,4.6,-,N/A,,Clear,140,2012-10-10 08:55:00
2:55 AM,41.5,33.3,72,29.99,10.0,SSE,3.5,-,N/A,,Clear,150,2012-10-10 09:55:00
3:55 AM,43.2,33.4,69,29.99,10.0,SE,3.5,-,N/A,,Clear,130,2012-10-10 10:55:00
4:55 AM,41.9,30.6,64,29.98,10.0,SW,3.5,-,N/A,,Clear,220,2012-10-10 11:55:00
4:58 AM,42.8,30.2,61,29.98,10.0,SW,4.6,-,N/A,,Clear,220,2012-10-10 11:58:00
5:10 AM,42.8,30.2,61,29.98,10.0,SSW,5.8,-,N/A,,Clear,200,2012-10-10 12:10:00
5:55 AM,42.1,32.0,67,29.98,10.0,Calm,Calm,-,0.00,,Clear,0,2012-10-10 12:55:00
6:20 AM,42.8,32.0,66,29.97,10.0,Calm,Calm,-,N/A,,Clear,0,2012-10-10 13:20:00
6:32 AM,41.0,32.0,70,29.98,10.0,SE,3.5,-,N/A,,Clear,140,2012-10-10 13:32:00
6:55 AM,41.4,32.9,72,29.99,10.0,Calm,Calm,-,0.00,,Clear,0,2012-10-10 13:55:00
7:55 AM,42.1,34.0,73,30.01,10.0,NNE,3.5,-,N/A,,Clear,30,2012-10-10 14:55:00
9:55 AM,55.4,32.4,42,29.99,10.0,East,8.1,-,N/A,,Clear,100,2012-10-10 16:55:00
10:55 AM,58.8,32.9,38,29.97,10.0,ESE,6.9,-,N/A,,Clear,120,2012-10-10 17:55:00
11:55 AM,63.1,32.4,32,29.96,10.0,Variable,5.8,-,N/A,,Clear,0,2012-10-10 18:55:00
12:55 PM,66.2,32.5,29,29.94,10.0,South,10.4,-,N/A,,Clear,190,2012-10-10 19:55:00
1:55 PM,68.0,33.1,27,29.91,10.0,SSW,9.2,-,N/A,,Clear,210,2012-10-10 20:55:00
2:55 PM,69.4,33.6,27,29.89,10.0,SW,8.1,-,N/A,,Clear,230,2012-10-10 21:55:00
3:55 PM,69.6,33.6,27,29.88,10.0,SSW,6.9,-,N/A,,Clear,210,2012-10-10 22:55:00
4:55 PM,68.7,33.8,28,29.88,10.0,WSW,4.6,-,N/A,,Clear,250,2012-10-10 23:55:00
5:55 PM,65.3,33.4,31,29.88,10.0,Calm,Calm,-,N/A,,Clear,0,2012-10-11 00:55:00
6:55 PM,62.2,33.6,34,29.89,10.0,Calm,Calm,-,N/A,,Clear,0,2012-10-11 01:55:00
7:55 PM,60.4,34.0,37,29.89,10.0,Calm,Calm,-,N/A,,Clear,0,2012-10-11 02:55:00
8:55 PM,54.3,33.8,46,29.90,10.0,Calm,Calm,-,N/A,,Clear,0,2012-10-11 03:55:00
9:55 PM,52.7,33.8,49,29.90,10.0,Calm,Calm,-,N/A,,Clear,0,2012-10-11 04:55:00
10:55 PM,48.7,33.4,56,29.91,10.0,NNE,3.5,-,N/A,,Clear,30,2012-10-11 05:55:00
11:55 PM,48.4,34.5,59,29.91,10.0,ENE,4.6,-,N/A,,Clear,60,2012-10-11 06:55:00